Location: Newark
(34.6501°N, 117.8502°W)
Time: 18:33:08
(UTC+00:00)

ISS - Visible Passes

Search period start: 23 October 2019 00:00
Search period end: 02 November 2019 00:00
Orbit: 411 x 421 km, 51.6° (Epoch: 24 October)

Date Brightness Start Highest point End Pass type
(mag) Time Alt. Az. Time Alt. Az. Time Alt. Az.
23 Oct -3.2 13:17:02 10° SW 13:20:21 59° SE 13:23:40 10° NE visible
24 Oct -1.9 12:29:52 16° S 12:31:51 29° SE 12:34:50 10° ENE visible
25 Oct -0.7 11:44:19 14° ESE 11:44:19 14° ESE 11:45:32 10° E visible
25 Oct -3.2 13:17:16 14° WSW 13:19:53 40° NW 13:23:05 10° NNE visible
26 Oct -3.8 12:31:27 72° N 12:31:27 72° N 12:34:37 10° NE visible
27 Oct -0.6 11:45:25 14° ENE 11:45:25 14° ENE 11:45:58 10° ENE visible
27 Oct -1.9 13:18:21 14° WNW 13:19:36 17° NNW 13:21:53 10° NNE visible
28 Oct -1.8 12:32:08 20° N 12:32:08 20° N 12:33:43 10° NNE visible
